www.pogodaiklimat.ru

Погода и климат >> Архив погоды >> Индонезия >> Масамба


ПОГОДА в Масамбе

  • Прогноз погоды в Масамбе
  • Монитор погоды в Масамбе

АРХИВ ПОГОДЫ в Масамбе

Время (UTC), дата Ветер
(напр.,м/с)
 
Видим.   Явления Облачность Т
(С)
Тd
(С)
f
(%)
Тe
(С)
Тes
(С)
Комфортность P
(гПа)
Po
(гПа)
Тmin
(С)
Tmax
(С)
R
(мм)
R24
(мм)
S
(см)
00 18.06 штиль 0 8000 м 8/3 500 м
[Sc As op Ci fib]
+24.3 +21.7 85 +31 +34 очень
душно
1012.7 1008.4 +22.6 6
03 18.06 ЮЗ 2 8000 м 6/4 500 м
[Cu med, cong Ac trans Ci fib]
+28.5 +23.1 73 +38 +47 очень
душно
1011.6 1007.3
06 18.06 СВ 2 9000 м 6/4 500 м
[Cu med, cong As op Ci fib]
+30.4 +21.8 60 +39 +46 очень
душно
1009.4 1005.1
09 18.06 СВ 2 7000 м слаб. дождь 9/4 480 м
[Cb cap As op]
+26.4 +24.6 90 +37 +37 очень
душно
1009.7 1005.4 2
12 18.06 штиль 0 6000 м слаб. дождь 10/4 480 м
[Cb cap As op]
+25.0 +23.2 90 +33 +33 очень
душно
1011.6 1007.2 +30.8 0.5
15 18.06 С 2 6000 м слаб. дождь 10/4 450 м
[Cb cap As op]
+24.6 +23.0 91 +33 +33 очень
душно
1012.0 1007.6 1
18 18.06 штиль 0 6000 м слаб. дождь 10/4 450 м
[Cb cap As op]
+24.0 +22.7 92 +31 +31 очень
душно
1010.7 1006.4 0.0
21 18.06 штиль 0 7000 м {дождь} 9/4 480 м
[Cb cap As op]
+23.8 +22.5 92 +31 +31 очень
душно
1010.5 1006.2 2
00 19.06 штиль 0 9000 м {дождь} 9/3 540 м
[Sc Ac As]
+24.4 +22.8 91 +32 +34 очень
душно
1011.9 1007.6 +22.6 5
03 19.06 штиль 0 9000 м 4/3 540 м
[Cu med, cong Ac trans Ci fib]
+29.0 +23.1 71 +39 +54 опасность
солнечного
удара
1010.9 1006.6
06 19.06 В 1 6000 м слаб. дождь 9/4 480 м
[Cb cap As op]
+28.4 +23.7 76 +39 +42 очень
душно
1009.0 1004.7 0.1
09 19.06 СВ 3 6000 м дождь 10/4 480 м
[Cb cap As op]
+25.4 +24.4 94 +35 +35 очень
душно
1008.9 1004.6 29
12 19.06 штиль 0 6000 м слаб. дождь 10/4 450 м
[Cb cap As op]
+24.2 +23.2 94 +32 +32 очень
душно
1011.3 1007.0 +29.7 19
15 19.06 штиль 0 6000 м слаб. дождь 10/4 450 м
[Cb cap As op]
+23.5 +22.1 92 +30 +30 очень
душно
1012.1 1007.7 12
18 19.06 СВ 2 7000 м {дождь} 10/4 480 м
[Cb cap As op]
+23.4 +22.1 92 +32 +32 очень
душно
1011.2 1006.9 2
21 19.06 штиль 0 8000 м 9/3 500 м
[Sc As op]
+23.4 +22.3 94 +32 +32 очень
душно
1011.1 1006.8
00 20.06 СВ 1 6000 м слаб. дождь 10/4 480 м
[Cb cap As op]
+24.0 +23.0 94 +32 +32 очень
душно
1012.8 1008.5 +23.4 2
03 20.06 СВ 3 9000 м {дождь} 8/3 500 м
[Cu med, cong As op]
+27.8 +22.8 74 +37 +41 очень
душно
1012.2 1007.9 0.0
06 20.06 ЮВ 2 8000 м {дождь} 9/4 500 м
[Cb cap As op Ci fib]
+30.2 +23.2 66 +40 +45 очень
душно
1009.8 1005.5 0.0
09 20.06 СЗ 2 5000 м слаб. дождь 10/4 450 м
[Cb cap As op]
+25.0 +23.5 91 +34 +34 очень
душно
1010.2 1005.9 10
12 20.06 штиль 0 7000 м {дождь} 10/4 500 м
[Sc As op]
+24.2 +22.6 91 +32 +32 очень
душно
1011.9 1007.5 +30.2 2
15 20.06 штиль 0 7000 м слаб. дождь 10/4 480 м
[Cb cap As op]
+23.4 +22.1 92 +32 +32 очень
душно
1013.0 1008.7 2
18 20.06 С 2 7000 м {дождь} 9/4 480 м
[Cb cap As op]
+23.2 +21.9 92 +31 +31 очень
душно
1011.1 1006.8 0.2
21 20.06 штиль 0 7000 м 9/3 500 м
[Sc As op]
+23.2 +21.9 92 +31 +31 очень
душно
1011.3 1007.0
00 21.06 штиль 0 9000 м 9/3 500 м
[Sc As op]
+24.0 +22.4 91 +31 +33 очень
душно
1012.3 1008.0 +22.8 13
03 21.06 ЮВ 2 8000 м 4/3 500 м
[Cu med, cong As trans Ci fib]
+28.2 +22.6 72 +37 +48 очень
душно
1010.7 1006.4
06 21.06 Ю 2 8000 м 5/4 500 м
[Cu med, cong As trans Ci fib]
+30.0 +22.7 65 +40 +47 очень
душно
1007.5 1003.2
09 21.06 штиль 0 8000 м 5/3 500 м
[Cu med, cong As op Ci fib]
+30.4 +22.8 64 +40 +41 очень
душно
1007.1 1002.8
12 21.06 штиль 0 8000 м 9/3 500 м
[Sc As op]
+27.2 +24.5 85 +38 +38 очень
душно
1009.5 1005.2
15 21.06 З 2 7000 м слаб. дождь 9/4 480 м
[Cb cap As op]
+25.6 +23.8 90 +35 +35 очень
душно
1010.5 1006.2 0.0
18 21.06 Ю 1 4000 м гроза, ливневой дождь 10/4 450 м
[Cb cap As op]
+24.2 +22.9 92 +32 +32 очень
душно
1010.7 1006.4 8
21 21.06 штиль 0 6000 м слаб. дождь {гроза} 10/4 480 м
[Cb cap As op]
+23.8 +23.1 96 +32 +32 очень
душно
1010.2 1005.9 27
00 22.06 штиль 0 9000 м {дождь} 5/3 500 м
[Sc Ac trans Ci fib]
+24.8 +23.5 92 +33 +37 очень
душно
1011.4 1007.1 +22.7 0.0
03 22.06 штиль 0 10 км 4/3 500 м
[Cu med, cong Ac trans Ci fib]
+29.2 +23.7 72 +40 +55 опасность
солнечного
удара
1010.0 1005.7
06 22.06 ЮЗ 2 9000 м 5/4 540 м
[Cu med, cong As op Ci fib]
+31.8 +24.1 64 +44 +52 опасность
перегрева
1007.0 1002.7
09 22.06 ЮВ 1 9000 м 4/3 540 м
[Cu med, cong As op Ci fib]
+30.4 +24.1 69 +42 +43 опасность
перегрева
1006.7 1002.4
12 22.06 штиль 0 7000 м 9/3 480 м
[Sc As op]
+28.2 +24.1 78 +39 +39 очень
душно
1009.2 1004.9 +32.4
15 22.06 штиль 0 7000 м слаб. дождь 10/4 480 м
[Cb cap As op]
+26.8 +24.7 88 +38 +38 очень
душно
1010.3 1006.0 0.0
18 22.06 штиль 0 7000 м в посл. час дождь 10/4 480 м
[Cb cap As op]
+25.8 +24.6 93 +36 +36 очень
душно
1009.3 1005.0 17
21 22.06 штиль 0 7000 м 9/4 480 м
[Cb cap As op]
+25.0 +23.5 91 +34 +34 очень
душно
1010.1 1005.8
00 23.06 штиль 0 8000 м 9/3 480 м
[Sc Ac As]
+25.6 +23.8 90 +35 +37 очень
душно
1011.5 1007.2 17
03 23.06 штиль 0 8000 м 9/3 480 м
[Sc As op]
+28.3 +23.8 77 +39 +44 очень
душно
1010.8 1006.5
06 23.06 Ю 2 9000 м 5/4 500 м
[Cu med, cong As op Ci fib]
+30.8 +24.2 68 +43 +51 опасность
перегрева
1008.3 1004.0
09 23.06 ЮВ 3 8000 м 8/4 480 м
[Cb cap As op]
+29.4 +23.9 72 +40 +41 очень
душно
1008.1 1003.8
12 23.06 штиль 0 8000 м {дождь} 9/4 480 м
[Cb cap As op]
+27.8 +24.6 83 +39 +39 очень
душно
1010.3 1006.0 +32.0 0.0
15 23.06 СВ 3 7000 м 9/4 480 м
[Cb cap As op]
+26.2 +24.4 90 +37 +37 очень
душно
1011.3 1007.0
18 23.06 штиль 0 7000 м слаб. дождь 9/4 480 м
[Cb cap As op]
+24.8 +23.8 94 +34 +34 очень
душно
1011.2 1006.9 23
21 23.06 штиль 0 7000 м {дождь} 9/4 480 м
[Cb cap As op]
+24.0 +23.0 94 +32 +32 очень
душно
1011.3 1007.0 0.0
00 24.06 штиль 0 8000 м {дождь} 9/3 500 м
[Sc As op]
+25.2 +23.9 93 +35 +36 очень
душно
1013.3 1009.0 +24.0 23
03 24.06 ЮЗ 1 8000 м 6/3 500 м
[Cu med, cong As op Ci fib]
+29.4 +23.1 69 +39 +50 очень
душно
1012.7 1008.4
06 24.06 ЮЗ 2 8000 м 5/4 500 м
[Cu med, cong As trans Ci fib]
+31.6 +23.2 61 +42 +49 опасность
перегрева
1010.7 1006.4
09 24.06 З 1 8000 м 3/1 500 м
[Sc As trans Ci fib]
+31.6 +22.6 59 +41 +42 опасность
перегрева
1009.6 1005.3
12 24.06 штиль 0 7000 м 9/3 500 м
[Sc As op]
+27.0 +23.4 81 +37 +37 очень
душно
1011.8 1007.5 +32.2
15 24.06 штиль 0 7000 м слаб. дождь 10/4 480 м
[Cb cap As op]
+26.4 +24.0 87 +37 +37 очень
душно
1012.9 1008.6 1
18 24.06 штиль 0 7000 м слаб. дождь 10/4 480 м
[Cb cap As op]
+25.4 +23.9 91 +35 +35 очень
душно
1011.9 1007.6 2
21 24.06 штиль 0 8000 м {дождь} 9/4 480 м
[Cb cap As op]
+24.6 +23.0 91 +33 +33 очень
душно
1012.5 1008.2 0.0

 

Местоположение метеостанции Масамба (Индонезия): широта -2.55 долгота 120.36 высота над уровнем моря 50 м.

В архиве по умолчанию представлена погода в Масамбе за последнюю неделю. Архивные данные за месяц целиком и за предыдущие месяцы, начиная с января 2011 года, Вы можете получить, выбрав интересующий диапазон дат из раскрывающегося списка и нажав кнопку "Ввод!".


*Определитесь, кто Вы:
робот инопланетянин человек

Внимание! Время в таблицах - всемирное. Для получения местного времени необходимо прибавить поправку, которая равна 8 ч.

Смотрите также архив погоды в соседних городах и на ближайших метеорологических станциях:

Погода в Посо (Индонезия) (136 км)
Погода в Маджене (Индонезия) (151 км)
Погода в Палу (Индонезия) (219 км)
Погода в Колаке (Индонезия) (234 км)
Погода в Кендари (Индонезия) (287 км)
Погода в Аэропорту Султана Хасануддин (Индонезия) (294 км)
Погода в Уджангпанданге (Индонезия) (294 км)
Погода в Лувуке (Индонезия) (326 км)
Погода в Толи-Толи (Индонезия) (400 км)
Погода в Бау-Бау (Индонезия) (410 км)

Пояснения к столбцам:

Ветер - указаны скорость ветра в м/с - средняя за 10 мин, порывы в срок и между сроками (в фигурных скобках) и направление, откуда дует ветер: С - северный, СВ - северо-восточный, В - восточный, ЮВ - юго-восточный, Ю - южный, ЮЗ - юго-западный, З - западный, СЗ - северо-западный.
Видимость - горизонтальная дальность видимости в метрах или километрах. При видимости от 1 до 10 км при отсутствии осадков обычно наблюдается дымка, при ухудшении видимости до 1 км и менее - туман. В сухую погоду видимость может ухудшаться дымом, пылью или мглою.
Явления - указаны атмосферные явления, наблюдавшиеся в срок или в последний час перед сроком; фигурными скобками обозначены явления, наблюдавшиеся между сроками (за 1-3 часа до срока); квадратными скобками обозначены град или гололедные отложения с указанием их диаметра в мм.
Облачность - указаны через наклонную черту общая и нижняя облачность в баллах и высота нижней границы облаков в метрах; квадратными скобками обозначены формы облаков: Ci - перистые, Cs - перисто-слоистые, Cc - перисто-кучевые, Ac - высококучевые, As - высокослоистые, Sc - слоисто-кучевые, Ns - слоисто-дождевые, Cu - кучевые, Cb - кучево-дождевые. Подробнее классификацию облаков см. в Атласе облаков (PDF).
T - Температура воздуха - температура, измеренная на высоте 2 м над землей.
Td - Температура точки росы - температура, при понижении до которой содержащийся в воздухе водяной пар достигнет насыщения.
f - Относительная влажность воздуха - влажноcть воздуха, измеренная на высоте 2 м над землей.
Te - Эффективная температура - температура, которую ощущает одетый по сезону человек в тени. Характеристика душности погоды. При расчете учитывается влияние влажности воздуха и скорости ветра на теплоощущения человека.
Tes - Эффективная температура на солнце - температура, которую ощущает человек, с поправкой на солнечный нагрев. Характеристика знойности погоды. Зависит от высоты солнца над горизонтом, облачности и скорости ветра. Ночью, в пасмурную погоду, а также при ветре 12 м/с и более поправка равна нулю.
P - Атмосферное давление - приведенное к уровню моря атмосферное давление.
Po - Атмосферное давление - измеренное на уровне метеостанции атмосферное давление.
Tmin - Минимальная температура - минимум температуры воздуха на высоте 2 м над землей.
Tmax - Максимальная температура - максимум температуры воздуха на высоте 2 м над землей.
R - Количество осадков - Количество выпавших осадков за период времени, мм. При наведении курсора мыши на число - период времени, за который выпало указанное количество осадков.
R24 - Количество осадков - Количество выпавших осадков за 24 часа, мм.
S - Снежный покров - Высота снежного покрова, см. При наведении курсора мыши на число - состояние снежного покрова и степень покрытия местности в баллах.